Regional Weather Roundup
Issued by NWS

Home | Current Version | Previous Version | Text Only | Print | Product List | Glossary Off
Versions: 1 2 3 4 5 6 7 8 9 10 11 12 13 14 15 16 17 18 19 20 21 22 23 24 25 26 27 28 29 30 31 32 33 34 35 36 37 38 39 40 41 42 43 44 45 46 47 48 49 50

000
ASUS43 KMPX 270710
RWRMN
WEATHER ROUNDUP FOR MINNESOTA
NATIONAL WEATHER SERVICE TWIN CITIES/CHANHASSEN MN
200 AM CDT TUE SEP 27 2016


NOTE: "FAIR" INDICATES FEW OR NO CLOUDS BELOW 12,000 FEET WITH NO
SIGNIFICANT WEATHER AND/OR OBSTRUCTIONS TO VISIBILITY. N/A MEANS
CURRENT SKY AND/OR WEATHER CONDITIONS ARE NOT AVAILABLE.

MNZ060>063-068>070-270800-
   Twin Cities Metro

CITY           SKY/WX    TMP DP  RH WIND       PRES   REMARKS
TWIN CITIES    CLEAR     53  36  52 W12       29.86R
ST PAUL        CLEAR     54  37  52 W12       29.86R
CRYSTAL        CLEAR     51  36  56 W9        29.85R
BLAINE         CLEAR     52  39  62 W8        29.84S
LAKEVILLE      CLEAR     50  36  57 W10G18    29.87R
EDEN PRAIRIE   CLEAR     53  35  50 W12       29.86S
LAKEVILLE      CLEAR     50  36  57 W10G18    29.87R
SOUTH ST PAUL  CLEAR     54  36  49 W9        29.85S
LAKE ELMO      FAIR      52  41  66 W8        29.84S
$$
MNZ001>005-007-008-013>017-022>024-027-028-270800-
   Northwest Minnesota

CITY           SKY/WX    TMP DP  RH WIND       PRES   REMARKS
BEMIDJI        CLOUDY    47  40  76 NW18G25   29.83F
HALLOCK        CLEAR     46  43  87 W9        29.89S
ROSEAU         CLOUDY    52  45  76 NW14G20   29.82S
WARROAD        CLOUDY    48  45  87 NW10G17   29.82S
THIEF RVR FALL CLEAR     47  42  83 NW14G21   29.89S
CROOKSTON      CLEAR     45  43  93 NW13      29.91F
FOSSTON        CLEAR     45  39  81 NW9       29.89S
DETROIT LAKES  CLEAR     46  41  81 NW9G17    29.92S
MOORHEAD       CLEAR     43  34  70 NW6       29.95S
PARK RAPIDS    CLEAR     46  39  76 NW10      29.85S
MAHNOMEN       FAIR      45  42  89 W14       29.90S
$$
MNZ006-009>011-018-025>026-270800-
   North Central Minnesota

CITY           SKY/WX    TMP DP  RH WIND       PRES   REMARKS
BAUDETTE       CLOUDY    51  45  79 NW17      29.76S
FLAG ISLAND    CLOUDY    52  46  82 NW23G29   29.75S
INTL FALLS     LGT RAIN  49  47  93 NW12      29.70R
WASKISH        CLOUDY    52  45  76 W15G23    29.79S
BIG FORK       CLOUDY    48  45  87 NW8       29.74S
LONGVILLE      CLOUDY    50  43  76 W9G16     29.80S
GRAND RAPIDS   CLOUDY    51  42  71 NW20G25   29.77S
CRANE LAKE     RAIN      48  46  93 N8G17     29.67R
ORR            CLOUDY    48  45  87 NW16G24   29.66S
COOK           DRIZZLE   48  46  93 W13G20    29.69R
WALKER         CLOUDY    47  40  78 NW14      29.83S
$$
MNZ012-019>021-037-270800-
   Northeast Minnesota

CITY           SKY/WX    TMP DP  RH WIND       PRES   REMARKS
DULUTH         CLOUDY    51  44  77 NW13G28   29.68S
ELY            LGT RAIN  46  46 100 NW9G16    29.62S
HIBBING        CLOUDY    48  43  82 NW20G29   29.70F
EVELETH        MOCLDY    49  46  88 W14G21    29.69S
DULUTH HARBOR  CLOUDY    55  46  71 W13G24    29.71R
TWO HARBORS    CLOUDY    54  46  76 W8G17     29.63S
SILVER BAY     CLOUDY    52  48  87 W5        29.59S
GRAND MARAIS     N/A     53  46  77 VRB6      29.50F
G MARAIS ARPRT CLOUDY    46  41  81 NW9G20    29.51S
$$
MNZ029>031-032-039>041-046>048-054>057-064-270800-
   West Central Minnesota

CITY           SKY/WX    TMP DP  RH WIND       PRES   REMARKS
FERGUS FALLS   CLEAR     43  34  70 CALM      29.96R
MORRIS         CLEAR     48  36  61 NW12      29.93R
ALEXANDRIA     CLEAR     45  36  70 W8        29.92S
ELBOW LAKE     FAIR      44  36  74 NW9       29.94R
WADENA         CLEAR     46  39  76 NW10G18   29.88S
GLENWOOD       CLEAR     45  36  70 NW7       29.92S
APPLETON       CLEAR     43  37  81 W7        29.94F
BENSON         CLEAR     45  36  70 NW7       29.94R
ORTONVILLE     CLEAR     52  37  58 W10       29.96S
MADISON          N/A     50  39  66 W8        29.96S
WILLMAR        FAIR      46  37  71 NW7       29.94S
$$
MNZ033>034-036-042>043-049>051-058-059-270800-
   Central Minnesota

CITY           SKY/WX    TMP DP  RH WIND       PRES   REMARKS
ST CLOUD       CLEAR     50  40  68 W10       29.86F
SAUK CENTRE    FAIR      44  35  71 W7        29.90S
PAYNESVILLE    CLEAR     46  35  66 W7        29.91S
AITKIN         CLOUDY    52  39  62 W9        29.77F
PINE RIVER     CLEAR     48  41  76 NW8       29.86S
BRAINERD       CLEAR     49  42  77 W12       29.83S
STAPLES        CLEAR     45  39  81 W10       29.86F
LONG PRAIRIE   FAIR      46  37  71 W12G17    29.89S
LITTLE FALLS   CLEAR     46  39  76 W8        29.86S
LITCHFIELD     CLEAR     52  37  58 W9        29.91R
BUFFALO        CLEAR     51  36  55 W10       29.89R
MAPLE LAKE     CLEAR     52  38  58 W8        29.89R
HUTCHINSON     CLEAR     46  39  76 W7        29.91S
$$
MNZ037-044-045-052-053-270800-
   East Central Minnesota

CITY           SKY/WX    TMP DP  RH WIND       PRES   REMARKS
PRINCETON      CLEAR     48  43  81 W9        29.84S
MORA           MOCLDY    48  41  76 W9        29.82S
CAMBRIDGE      CLEAR     52  41  66 W9G16     29.81S
MOOSE LAKE     CLOUDY    52  41  66 NW7G17    29.74R
HINCKLEY       CLOUDY    52  43  71 W10       29.78S
CLOQUET        CLOUDY    52  41  66 W12G18    29.72R
MCGREGOR       CLOUDY    52  43  71 W13G18    29.77S
$$
MNZ071>073-080-081-089-090-097-098-270800-
   Southwest Minnesota

CITY           SKY/WX    TMP DP  RH WIND       PRES   REMARKS
MONTEVIDEO     CLEAR     48  37  66 NW8       29.96S
GRANITE FALLS  CLEAR     46  39  77 W7        29.97S
CANBY          CLEAR     50  38  63 NW6       29.98S
MARSHALL       CLEAR     48  37  65 W10       29.97S
REDWOOD FALLS  CLEAR     48  37  65 W10       29.94S
OLIVIA         CLEAR     50  37  62 W9        29.92S
PIPESTONE      CLEAR     50  34  53 NW8       30.01S
WINDOM         CLEAR     46  37  71 W8        29.98S
WORTHINGTON    CLEAR     48  36  63 W7        30.00F
JACKSON        CLEAR     54  32  43 NW10      29.98S
TRACY          CLEAR     51  39  63 W6        29.98S
SLAYTON        CLEAR     46  36  66 W6        30.01S
$$
MNZ065>067-074>077-082>085-091>093-270800-
   South Central Minnesota

CITY           SKY/WX    TMP DP  RH WIND       PRES   REMARKS
MANKATO        CLEAR     51  37  58 W10       29.92S
NEW ULM        CLEAR     46  37  71 W9        29.93S
ST JAMES       CLEAR     50  37  62 W8        29.96R
FAIRMONT       CLEAR     52  37  56 W12       29.96S
GLENCOE        CLEAR     49  40  68 W9        29.90R
FARIBAULT      CLEAR     52  37  58 W8        29.89F
OWATONNA       CLEAR     48  37  66 W9        29.90S
WASECA         CLEAR     45  36  70 W3        29.92F
ALBERT LEA     CLEAR     50  37  62 W7        29.92F
$$
MNZ078>079-086>088-094>096-270800-
   Southeast Minnesota

CITY           SKY/WX    TMP DP  RH WIND       PRES   REMARKS
ROCHESTER      CLEAR     50  37  61 W12       29.88F
RED WING       CLEAR     52  37  58 W8        29.83S
DODGE CENTER   PTCLDY    46  37  71 W10       29.88F
WINONA         CLEAR     55  36  47 W12G18    29.84S
AUSTIN         CLEAR     48  36  61 W7        29.91S
PRESTON        CLEAR     49  35  57 W12       29.89S
$$
ABBREVIATIONS USED IN REMARKS
   TC - TEMPERATURES IN CELSIUS
  WCI - WIND CHILL INDEX
   HX - HEAT INDEX
  VSB - VISIBILITY
$$




USA.gov is the U.S. government's official web portal to all federal, state and local government web resources and services.